Airfield :







YOU CAN JOIN US ON...

 
LOGIN :

Register | Disclaimer

   EN    FR    IT 

 









Legend :    VFR   Marginal VFR   IFR   Intensive IFR   Very Intensive IFR
Visi :
Ceiling :
>= 8 km
>= 3000ft
5 to 8 km
1000 to 3000 ft
1500m to 5 km
500 to 1000 ft
800 to 1500m
200 to 500 ft
< 800m
< 200 ft
Symbols :   Thunderstorms  Fog  Heavy snow  Heavy precipitations  Wind > 20 kt






- Airport Elevation : 107 ft


KBVY - Beverly Municipal

CURRENT METAR :
  • 262053Z 04009KT 10SM CLR 14/08 A3040 RMK AO2 SLP288 T01390078 58008

EXPIRED METARs :
  • 261953Z 06010KT 10SM CLR 14/08 A3041 RMK AO2 SLP292 T01390078
  • 261853Z 04009G16KT 10SM FEW023 14/09 A3042 RMK AO2 SLP298 T01390089

TAF N/A
KZBW FIR / North America



MET'MAP, your aeronautical weather chart ! - Copyright ORBIFLY December 2007 - Disclaimer

ORBIFLY MET'MAP TEAM :

Programming & Development : Alexandra Zaïnal
Original concept : Baudouin d'Aumeries
Technical & hardware support : Manuel Goepfert
Assistance : Marc-Olivier Méhu




SOURCES & CREDITS :

   NOAA